[[{"header":{"parameterUnit":"m.s-1","parameterCategory":1,"la1":30.2991,"la2":30.254,"lo1":-89.0895,"lo2":-89.0444,"dy":0.0017,"dx":0.0017,"nx":28,"ny":28,"refTime":"2024-04-06T03:00:00:Z","depth":0,"parameterNumber":2,"parameterNumberName":"U-component_of_WINDS"},"data":[0,0,0,0,0,0,0,0,0,0,0,0,0,0,0,0,0,0,0,0,0,0,0,0,0,0,0,0,0,0,0,0,0,0,0,0,0,0,0,0,0,0,0,0,0,0,0,0,0,0,0,0,0,0,0,0,0,0,-2.2731,-2.2731,0,-2.2753,-2.2753,-2.2753,-2.2714,-2.2712,-2.2711,-2.271,-2.2733,-2.2735,-2.2737,0,0,0,0,0,0,0,0,0,0,0,0,0,-2.2657,-2.2658,-2.2731,-2.2731,-2.2731,-2.2753,-2.2753,-2.2753,-2.2714,-2.2712,-2.2711,-2.2709,-2.2733,-2.2735,-2.2737,0,0,0,0,0,0,0,0,0,0,0,0,0,-2.2685,-2.2659,-2.2731,-2.2714,-2.2713,-2.2753,-2.2753,-2.2753,-2.2714,-2.2712,-2.271,-2.2708,-2.2732,-2.2735,-2.2738,-2.2795,0,0,-2.2746,-2.2747,0,0,0,0,0,0,0,0,-2.2683,-2.2687,-2.2716,-2.2715,-2.2714,-2.2728,-2.2735,-2.2767,-2.2715,-2.2714,-2.271,-2.2707,-2.2733,-2.2736,-2.2744,-2.2796,-2.2797,-2.2746,-2.2748,-2.2749,-2.275,0,0,0,0,0,0,0,-2.2681,-2.2686,-2.2739,-2.2717,-2.2715,-2.2706,-2.2708,-2.2741,-2.2735,-2.2714,-2.2711,-2.2714,-2.2732,-2.2742,-2.2745,-2.2797,-2.2746,-2.2749,-2.2751,-2.2752,-2.2896,-2.2898,0,0,0,0,0,0,-2.2681,-2.2685,-2.2739,-2.274,-2.2693,-2.2709,-2.2711,-2.2726,-2.2734,-2.2733,-2.2716,-2.2712,-2.2738,-2.2742,-2.2745,-2.2812,-2.2749,-2.2752,-2.2753,-2.2894,-2.2897,-2.2899,0,0,0,0,0,0,-2.268,-2.2686,-2.2738,-2.2712,-2.2718,-2.2713,-2.2729,-2.2727,-2.2737,-2.2735,-2.2734,-2.2726,-2.2737,-2.2742,-2.2783,-2.2813,-2.2753,-2.2756,-2.2892,-2.2895,-2.2898,-2.2947,0,0,0,0,0,0,-2.2678,-2.2686,-2.2707,-2.2713,-2.2719,-2.2774,-2.2731,-2.2729,-2.2741,-2.2737,-2.2745,-2.2745,-2.2735,-2.2779,-2.2785,-2.2815,-2.2758,-2.2889,-2.2893,-2.2897,-2.2943,-2.2951,-2.2959,0,0,0,0,0,-2.2675,-2.2721,-2.2709,-2.2715,-2.2746,-2.2776,-2.278,-2.2768,-2.2744,-2.2765,-2.2765,-2.2744,-2.2809,-2.2783,-2.279,-2.2822,-2.2887,-2.2892,-2.2897,-2.2939,-2.295,-2.2959,0,0,0,0,0,0,-2.2719,-2.2721,-2.2708,-2.2756,-2.2766,-2.2769,-2.2796,-2.278,-2.2797,-2.2793,-2.2777,-2.278,-2.2824,-2.2827,-2.2799,-2.2877,-2.2844,-2.285,-2.2873,-2.2884,-2.2892,-2.2889,-2.276,0,0,0,0,0,-2.2735,-2.2759,-2.2759,-2.2802,-2.2808,-2.2801,-2.2814,-2.2804,-2.2814,-2.2818,-2.2821,-2.2832,-2.2854,-2.2869,-2.289,-2.2943,-2.2944,-2.2969,-2.2977,-2.2983,-2.2989,-2.3017,-2.3027,-2.2915,-2.2915,-2.2915,0,0,-2.2767,-2.2771,-2.2787,-2.2811,-2.2818,-2.2843,-2.2805,-2.2834,-2.2853,-2.2823,-2.2861,-2.2864,-2.2875,-2.2922,-2.2943,-2.2926,-2.302,-2.299,-2.2995,-2.2997,-2.3023,-2.3034,-2.3043,-2.2918,-2.2918,-2.2917,0,0,-2.2838,-2.2843,-2.2879,-2.2887,-2.2897,-2.2893,-2.2901,-2.2907,-2.2907,-2.2946,-2.2924,-2.2946,-2.2986,-2.2994,-2.3004,-2.3079,-2.3061,-2.3087,-2.3129,-2.3156,-2.3165,-2.3173,-2.3199,-2.3209,-2.3092,-2.3093,-2.3093,0,-2.2876,-2.2913,-2.29,-2.293,-2.2941,-2.2915,-2.2951,-2.296,-2.2977,-2.2985,-2.2966,-2.3015,-2.3021,-2.3069,-2.3087,-2.3097,-2.3106,-2.3085,-2.3165,-2.3173,-2.318,-2.3204,-2.3214,-2.3095,-2.3095,-2.3095,-2.3095,0,-2.296,-2.2986,-2.3014,-2.303,-2.3045,-2.3078,-2.307,-2.3086,-2.3075,-2.3073,-2.3113,-2.3119,-2.314,-2.3151,-2.3141,-2.3199,-2.3188,-2.3167,-2.3133,-2.3194,-2.3216,-2.3226,-2.31,-2.3099,-2.3098,-2.3097,0,0,-2.3058,-2.3067,-2.3077,-2.3084,-2.3094,-2.3114,-2.3147,-2.3167,-2.3181,-2.3194,-2.3221,-2.3255,-2.3236,-2.3247,-2.3238,-2.3262,-2.332,-2.3238,-2.3238,-2.3252,-2.3383,-2.3398,-2.3409,-2.3309,-2.3311,-2.3312,-2.3382,0,-2.3128,-2.3183,-2.3172,-2.3225,-2.3249,-2.3225,-2.3253,-2.3263,-2.3262,-2.3282,-2.3281,-2.3305,-2.3279,-2.3285,-2.3308,-2.3308,-2.3346,-2.3303,-2.3333,-2.3334,-2.3329,-2.3421,-2.3436,-2.3502,-2.3391,-2.3393,-2.3394,0,-2.3217,-2.3232,-2.3288,-2.3294,-2.3303,-2.3329,-2.3346,-2.3366,-2.3377,-2.3374,-2.3387,-2.3373,-2.3406,-2.3372,-2.3416,-2.3387,-2.3399,-2.3401,-2.3403,-2.3405,-2.3367,-2.3424,-2.3523,-2.3533,-2.3408,-2.3407,-2.3406,0,-2.3282,-2.3317,-2.3354,-2.3361,-2.3369,-2.3388,-2.3392,-2.34,-2.3413,-2.3429,-2.3437,-2.3457,-2.3468,-2.3484,-2.3476,-2.3452,-2.3522,-2.3487,-2.352,-2.352,-2.3535,-2.3534,-2.3636,-2.3545,-2.3545,-2.3544,-2.3544,0,-2.336,-2.3395,-2.3384,-2.3407,-2.3445,-2.3433,-2.3471,-2.3473,-2.3481,-2.3504,-2.3485,-2.3508,-2.3496,-2.3518,-2.3512,-2.355,-2.3555,-2.3554,-2.3552,-2.3555,-2.3555,-2.3561,-2.3556,-2.3547,-2.3546,-2.3546,-2.3545,0,-2.3439,-2.3433,-2.3472,-2.3476,-2.3478,-2.3506,-2.351,-2.3532,-2.353,-2.3559,-2.3566,-2.3562,-2.3587,-2.3581,-2.3608,-2.3604,-2.3651,-2.3644,-2.3647,-2.3645,-2.3678,-2.3674,-2.3787,-2.3801,-2.3701,-2.3702,-2.3703,0,-2.3489,-2.3515,-2.3522,-2.3536,-2.3541,-2.3564,-2.3577,-2.3566,-2.358,-2.3594,-2.3614,-2.3637,-2.3654,-2.3695,-2.3695,-2.3716,-2.3708,-2.3747,-2.3711,-2.3714,-2.3708,-2.3706,-2.3708,-2.3753,-2.3754,-2.3755,-2.3756,0,-2.3578,-2.3573,-2.3592,-2.361,-2.3626,-2.364,-2.3652,-2.3665,-2.3655,-2.3672,-2.3696,-2.371,-2.3737,-2.376,-2.3779,-2.3784,-2.3769,-2.3767,-2.3776,-2.3779,-2.3779,-2.3778,-2.3665,-2.3764,-2.3764,-2.3763,-2.3762,-2.3762,-2.3643,-2.3665,-2.3673,-2.3694,-2.3702,-2.3714,-2.3735,-2.3735,-2.3755,-2.3776,-2.3768,-2.3796,-2.3806,-2.383,-2.3837,-2.3859,-2.3845,-2.3858,-2.3861,-2.3864,-2.3867,-2.3777,-2.3863,-2.3863,-2.3863,-2.3862,-2.3862,0,-2.373,-2.3734,-2.3754,-2.3771,-2.3788,-2.3772,-2.3785,-2.38,-2.3825,-2.3835,-2.3853,-2.3881,-2.3903,-2.3905,-2.3926,-2.3943,-2.3937,-2.3949,-2.3947,-2.3948,-2.3879,-2.3869,-2.3954,-2.3954,-2.3954,-2.3954,-2.3954,-2.3954,-2.3777,-2.3813,-2.381,-2.3849,-2.3853,-2.388,-2.3889,-2.3899,-2.3907,-2.394,-2.3958,-2.3959,-2.3966,-2.3987,-2.4007,-2.4007,-2.4015,-2.403,-2.4027,-2.3963,-2.3953,-2.3945,-2.3935,-2.4032,-2.4032,-2.4094,-2.4095,-2.4095]},{"header":{"parameterUnit":"m.s-1","parameterCategory":1,"la1":30.2991,"la2":30.254,"lo1":-89.0895,"lo2":-89.0444,"dy":0.0017,"dx":0.0017,"nx":28,"ny":28,"refTime":"2024-04-06T03:00:00:Z","depth":0,"parameterNumber":3,"parameterNumberName":"V-component_of_WINDS"},"data":[0,0,0,0,0,0,0,0,0,0,0,0,0,0,0,0,0,0,0,0,0,0,0,0,0,0,0,0,0,0,0,0,0,0,0,0,0,0,0,0,0,0,0,0,0,0,0,0,0,0,0,0,0,0,0,0,0,0,3.483,3.483,0,3.4842,3.4842,3.4842,3.4777,3.4775,3.4773,3.4772,3.4782,3.4784,3.4786,0,0,0,0,0,0,0,0,0,0,0,0,0,3.4748,3.475,3.483,3.483,3.483,3.4842,3.4842,3.4842,3.4777,3.4775,3.4773,3.4771,3.4781,3.4784,3.4786,0,0,0,0,0,0,0,0,0,0,0,0,0,3.4775,3.4751,3.483,3.4799,3.4797,3.4842,3.4842,3.4842,3.4778,3.4775,3.4772,3.477,3.4781,3.4784,3.4787,3.4861,0,0,3.4796,3.4797,0,0,0,0,0,0,0,0,3.4773,3.4778,3.4804,3.4801,3.4799,3.4805,3.4817,3.4848,3.4779,3.4785,3.4772,3.4768,3.4792,3.4794,3.4802,3.4862,3.4862,3.4796,3.4798,3.4799,3.48,0,0,0,0,0,0,0,3.4771,3.4777,3.4834,3.4804,3.4801,3.4784,3.4785,3.4823,3.4804,3.4784,3.4779,3.4782,3.479,3.4799,3.4802,3.4862,3.4796,3.4799,3.4801,3.4802,3.4982,3.4985,0,0,0,0,0,0,3.4774,3.4776,3.4834,3.4835,3.4779,3.4788,3.4789,3.4806,3.4803,3.48,3.4784,3.4779,3.4796,3.4798,3.4802,3.4888,3.4799,3.4802,3.4804,3.4979,3.4983,3.4986,0,0,0,0,0,0,3.4772,3.478,3.4834,3.4804,3.481,3.4792,3.4812,3.4808,3.4817,3.4803,3.4799,3.4797,3.4794,3.4798,3.4847,3.4887,3.4803,3.4806,3.4976,3.498,3.4984,3.5061,0,0,0,0,0,0,3.477,3.478,3.4808,3.4805,3.4811,3.4879,3.4815,3.481,3.4822,3.4815,3.4815,3.4812,3.4792,3.4843,3.485,3.489,3.4808,3.4972,3.4978,3.4983,3.5055,3.5067,3.5078,0,0,0,0,0,3.4768,3.4829,3.481,3.4817,3.4847,3.4881,3.4885,3.4861,3.4826,3.4854,3.4845,3.4812,3.4882,3.4848,3.4856,3.4897,3.4969,3.4976,3.4982,3.5049,3.5065,3.5078,0,0,0,0,0,0,3.4837,3.4828,3.4807,3.4869,3.4877,3.487,3.4905,3.4878,3.4895,3.4888,3.4857,3.4857,3.4911,3.4909,3.4871,3.4969,3.4919,3.4928,3.4968,3.4982,3.4994,3.4993,3.4811,0,0,0,0,0,3.486,3.4889,3.488,3.4936,3.494,3.4923,3.4937,3.4918,3.4923,3.4926,3.4921,3.4928,3.4951,3.4967,3.4988,3.5055,3.5053,3.5087,3.5099,3.5109,3.5116,3.515,3.5165,3.5008,3.5008,3.5008,0,0,3.4906,3.4905,3.4926,3.495,3.4953,3.4983,3.4925,3.496,3.4982,3.4931,3.4976,3.4973,3.4979,3.5037,3.5062,3.5037,3.5159,3.5117,3.5125,3.5127,3.5158,3.5173,3.5186,3.5012,3.5012,3.5011,0,0,3.5007,3.501,3.5056,3.5061,3.5067,3.5054,3.5066,3.5064,3.5059,3.5105,3.5067,3.5093,3.5134,3.5139,3.5147,3.5249,3.5219,3.5257,3.5319,3.5352,3.5364,3.5375,3.541,3.5423,3.5265,3.5265,3.5265,0,3.5064,3.5108,3.5083,3.512,3.5131,3.5088,3.5133,3.5139,3.5152,3.516,3.5132,3.5182,3.5183,3.5241,3.5266,3.5275,3.5285,3.5256,3.5365,3.5375,3.5385,3.5418,3.5432,3.527,3.5269,3.5269,3.5268,0,3.5177,3.5209,3.5246,3.5259,3.5274,3.5316,3.5296,3.5315,3.5294,3.5285,3.5331,3.5331,3.535,3.5363,3.5343,3.5418,3.5402,3.537,3.532,3.5405,3.5435,3.5448,3.5276,3.5274,3.5273,3.5272,0,0,3.5321,3.532,3.5333,3.5339,3.5342,3.5366,3.5405,3.5425,3.544,3.5451,3.5482,3.5518,3.5488,3.5498,3.5478,3.5508,3.5588,3.5472,3.5472,3.5492,3.5668,3.5691,3.5706,3.5568,3.5571,3.5572,3.5667,0,3.5417,3.5484,3.5463,3.553,3.5558,3.5518,3.5552,3.5557,3.5549,3.5572,3.5563,3.5588,3.5548,3.5553,3.5581,3.5572,3.5622,3.5565,3.5596,3.5597,3.5594,3.5722,3.5746,3.5836,3.5679,3.5681,3.5683,0,3.5539,3.5554,3.5625,3.5623,3.5634,3.5665,3.5681,3.5703,3.5708,3.57,3.5711,3.5686,3.5723,3.5674,3.5724,3.5686,3.5697,3.5695,3.5698,3.5698,3.5644,3.5724,3.5864,3.5877,3.5701,3.57,3.5699,0,3.5634,3.5673,3.5719,3.5725,3.5725,3.5747,3.5748,3.5751,3.5764,3.5778,3.5785,3.5804,3.5813,3.5828,3.5807,3.5774,3.586,3.581,3.5854,3.5854,3.5872,3.5871,3.6014,3.5883,3.5883,3.5882,3.5882,0,3.5744,3.5788,3.5762,3.5791,3.5839,3.5814,3.5862,3.5858,3.5861,3.5887,3.5853,3.5879,3.5852,3.5874,3.5859,3.5902,3.5907,3.5901,3.5896,3.5903,3.5904,3.5909,3.5902,3.5886,3.5885,3.5885,3.5884,0,3.5857,3.5842,3.589,3.5886,3.5886,3.5922,3.5917,3.5943,3.5934,3.5968,3.5974,3.5958,3.5984,3.5965,3.599,3.598,3.6037,3.6024,3.6035,3.6031,3.6075,3.607,3.6224,3.6243,3.6102,3.6103,3.6104,0,3.5927,3.5961,3.596,3.5976,3.5979,3.6004,3.6017,3.5994,3.6008,3.6017,3.6042,3.6064,3.608,3.6122,3.6113,3.6131,3.6118,3.617,3.612,3.6126,3.6116,3.6114,3.6117,3.618,3.6182,3.6183,3.6184,0,3.6053,3.6043,3.6064,3.6082,3.6098,3.6111,3.6121,3.6136,3.6112,3.613,3.6155,3.6168,3.6194,3.6216,3.6231,3.6231,3.6204,3.62,3.6211,3.6218,3.6222,3.6219,3.6061,3.6196,3.6195,3.6194,3.6194,3.6193,3.6145,3.6173,3.6176,3.62,3.6205,3.6215,3.6239,3.6232,3.6253,3.6272,3.6257,3.6287,3.6291,3.6309,3.6312,3.6335,3.6313,3.6329,3.6333,3.6337,3.6342,3.622,3.6338,3.6337,3.6337,3.6337,3.6336,0,3.6268,3.6268,3.629,3.6305,3.6324,3.6297,3.6307,3.6323,3.635,3.6357,3.6374,3.6402,3.6424,3.6416,3.6435,3.6455,3.6442,3.646,3.6458,3.6458,3.6361,3.6349,3.647,3.647,3.647,3.647,3.647,3.647,3.6333,3.6377,3.6368,3.6414,3.6414,3.6444,3.6451,3.646,3.6465,3.6498,3.6516,3.6511,3.6512,3.653,3.6548,3.6546,3.6553,3.6576,3.6568,3.6478,3.6465,3.6452,3.644,3.6578,3.6578,3.6662,3.6663,3.6664]}]]